When you browse on this site, cookies collect data to enhance your experience and personalize the content and advertising you see.
Visit our Privacy Policy to learn more. By continuing to use the site, you agree to this use of cookies and data.

Hourly Weather Pustniki

Today, 9 August, Sunday

Time Temperature Precipitation Wind Pressure Humidity
00:00 +21°C° 0.1 mm 1 mps 753 mmHg 87%
01:00 +21°C° 0 mm 1 mps 753 mmHg 88%
02:00 +21°C° 0.5 mm 1 mps 753 mmHg 89%
03:00 +18°C° 0.5 mm 0 mps 752 mmHg 90%
04:00 +18°C° 0.5 mm 0 mps 752 mmHg 91%
05:00 +19°C° 0 mm 0 mps 752 mmHg 87%
06:00 +21°C° 0 mm 0 mps 752 mmHg 84%
07:00 +24°C° 0 mm 1 mps 752 mmHg 80%
08:00 +25°C° 0.3 mm 1 mps 752 mmHg 75%
09:00 +27°C° 0.3 mm 1 mps 752 mmHg 70%
10:00 +28°C° 0.3 mm 1 mps 752 mmHg 64%
11:00 +28°C° 0.7 mm 2 mps 752 mmHg 63%
12:00 +28°C° 0.7 mm 2 mps 752 mmHg 62%
13:00 +29°C° 0.7 mm 3 mps 752 mmHg 60%
14:00 +28°C° 0.9 mm 3 mps 751 mmHg 63%
15:00 +28°C° 0.9 mm 3 mps 751 mmHg 66%
16:00 +27°C° 0.9 mm 3 mps 751 mmHg 68%
17:00 +26°C° 0.2 mm 3 mps 751 mmHg 74%
18:00 +25°C° 0.2 mm 2 mps 751 mmHg 80%
19:00 +23°C° 0.2 mm 2 mps 751 mmHg 86%
20:00 +21°C° 0 mm 2 mps 751 mmHg 88%
21:00 +20°C° 0 mm 2 mps 751 mmHg 90%
22:00 +19°C° 0 mm 2 mps 751 mmHg 93%
23:00 +19°C° 0 mm 2 mps 751 mmHg 93%

Tomorrow, 10 August, Monday

Time Temperature Precipitation Wind Pressure Humidity
00:00 +19°C° 0 mm 2 mps 751 mmHg 93%
01:00 +18°C° 0 mm 2 mps 751 mmHg 93%
02:00 +18°C° 0 mm 2 mps 751 mmHg 94%
03:00 +18°C° 0 mm 2 mps 751 mmHg 94%
04:00 +17°C° 0 mm 2 mps 751 mmHg 94%
05:00 +19°C° 0 mm 2 mps 751 mmHg 90%
06:00 +20°C° 0 mm 2 mps 751 mmHg 86%
07:00 +21°C° 0 mm 2 mps 751 mmHg 82%
08:00 +24°C° 0 mm 2 mps 752 mmHg 76%
09:00 +25°C° 0 mm 2 mps 752 mmHg 70%
10:00 +26°C° 0 mm 2 mps 752 mmHg 64%
11:00 +27°C° 0 mm 3 mps 752 mmHg 62%
12:00 +27°C° 0 mm 3 mps 752 mmHg 61%
13:00 +28°C° 0 mm 3 mps 751 mmHg 59%
14:00 +27°C° 0.1 mm 3 mps 751 mmHg 61%
15:00 +27°C° 0.1 mm 3 mps 751 mmHg 62%
16:00 +27°C° 0.1 mm 4 mps 751 mmHg 64%
17:00 +25°C° 0.1 mm 3 mps 751 mmHg 71%
18:00 +22°C° 0.1 mm 3 mps 751 mmHg 77%
19:00 +21°C° 0.1 mm 3 mps 751 mmHg 84%
20:00 +20°C° 0 mm 3 mps 751 mmHg 87%
21:00 +19°C° 0 mm 2 mps 752 mmHg 90%
22:00 +18°C° 0 mm 2 mps 752 mmHg 92%
23:00 +18°C° 0 mm 2 mps 752 mmHg 93%

Day after tomorrow, 11 August, Tuesday

Time Temperature Precipitation Wind Pressure Humidity
00:00 +18°C° 0 mm 2 mps 752 mmHg 94%
01:00 +17°C° 0 mm 2 mps 752 mmHg 94%
02:00 +17°C° 0 mm 2 mps 752 mmHg 93%
03:00 +16°C° 0 mm 2 mps 752 mmHg 92%
04:00 +16°C° 0 mm 2 mps 752 mmHg 91%
05:00 +17°C° 0 mm 2 mps 752 mmHg 85%
06:00 +17°C° 0 mm 2 mps 752 mmHg 79%
07:00 +18°C° 0 mm 3 mps 753 mmHg 73%
08:00 +19°C° 0 mm 3 mps 753 mmHg 70%
09:00 +20°C° 0 mm 3 mps 753 mmHg 66%
10:00 +22°C° 0 mm 4 mps 753 mmHg 63%
11:00 +22°C° 0 mm 4 mps 753 mmHg 61%
12:00 +23°C° 0 mm 4 mps 753 mmHg 60%
13:00 +25°C° 0 mm 5 mps 753 mmHg 58%
14:00 +23°C° 0 mm 5 mps 753 mmHg 58%
15:00 +23°C° 0 mm 5 mps 753 mmHg 58%
16:00 +22°C° 0 mm 5 mps 753 mmHg 58%
17:00 +21°C° 0 mm 4 mps 753 mmHg 64%
18:00 +19°C° 0 mm 3 mps 753 mmHg 70%
19:00 +18°C° 0 mm 3 mps 753 mmHg 77%
20:00 +17°C° 0 mm 2 mps 753 mmHg 80%
21:00 +16°C° 0 mm 2 mps 754 mmHg 83%
22:00 +15°C° 0 mm 2 mps 754 mmHg 86%
23:00 +14°C° 0 mm 2 mps 754 mmHg 88%

12 August, Wednesday

Time Temperature Precipitation Wind Pressure Humidity
00:00 +14°C° 0 mm 2 mps 754 mmHg 89%
01:00 +13°C° 0 mm 2 mps 754 mmHg 90%
02:00 +13°C° 0 mm 2 mps 754 mmHg 91%
03:00 +12°C° 0 mm 2 mps 754 mmHg 92%
04:00 +12°C° 0 mm 1 mps 754 mmHg 92%
05:00 +14°C° 0 mm 1 mps 754 mmHg 87%
06:00 +15°C° 0 mm 1 mps 754 mmHg 81%
07:00 +17°C° 0 mm 2 mps 754 mmHg 75%
08:00 +18°C° 0 mm 2 mps 754 mmHg 69%
09:00 +20°C° 0 mm 2 mps 755 mmHg 62%
10:00 +21°C° 0 mm 2 mps 755 mmHg 56%
11:00 +23°C° 0 mm 2 mps 754 mmHg 54%
12:00 +23°C° 0 mm 2 mps 754 mmHg 51%
13:00 +24°C° 0 mm 2 mps 754 mmHg 49%
14:00 +24°C° 0 mm 2 mps 754 mmHg 50%
15:00 +22°C° 0 mm 3 mps 754 mmHg 52%
16:00 +22°C° 0 mm 3 mps 753 mmHg 54%
17:00 +20°C° 0 mm 3 mps 753 mmHg 61%
18:00 +19°C° 0 mm 2 mps 753 mmHg 68%
19:00 +17°C° 0 mm 2 mps 753 mmHg 76%
20:00 +16°C° 0 mm 2 mps 753 mmHg 78%
21:00 +15°C° 0 mm 2 mps 753 mmHg 80%
22:00 +14°C° 0 mm 2 mps 753 mmHg 82%
23:00 +14°C° 0 mm 2 mps 753 mmHg 82%

13 August, Thursday

Time Temperature Precipitation Wind Pressure Humidity
00:00 +14°C° 0 mm 1 mps 753 mmHg 82%
01:00 +13°C° 0 mm 1 mps 753 mmHg 82%
02:00 +13°C° 0 mm 1 mps 753 mmHg 83%
03:00 +12°C° 0 mm 1 mps 752 mmHg 84%
04:00 +12°C° 0 mm 1 mps 752 mmHg 85%
05:00 +14°C° 0 mm 1 mps 752 mmHg 80%
06:00 +15°C° 0 mm 1 mps 752 mmHg 74%
07:00 +18°C° 0 mm 1 mps 752 mmHg 69%
08:00 +20°C° 0 mm 1 mps 752 mmHg 63%
09:00 +21°C° 0 mm 1 mps 752 mmHg 58%
10:00 +23°C° 0 mm 1 mps 752 mmHg 52%
11:00 +24°C° 0 mm 1 mps 752 mmHg 49%
12:00 +25°C° 0 mm 1 mps 752 mmHg 46%
13:00 +24°C° 0 mm 0 mps 751 mmHg 43%
14:00 +23°C° 0 mm 0 mps 751 mmHg 43%
15:00 +25°C° 0 mm 1 mps 751 mmHg 44%
16:00 +25°C° 0 mm 1 mps 750 mmHg 44%
17:00 +23°C° 0 mm 1 mps 750 mmHg 51%
18:00 +21°C° 0 mm 1 mps 750 mmHg 59%
19:00 +18°C° 0 mm 2 mps 750 mmHg 66%
20:00 +17°C° 0 mm 2 mps 750 mmHg 69%
21:00 +17°C° 0 mm 2 mps 750 mmHg 72%
22:00 +16°C° 0 mm 2 mps 750 mmHg 75%
23:00 +15°C° 0 mm 1 mps 750 mmHg 77%

14 August, Friday

Time Temperature Precipitation Wind Pressure Humidity
00:00 +15°C° 0 mm 1 mps 749 mmHg 79%
01:00 +14°C° 0 mm 1 mps 749 mmHg 80%
02:00 +14°C° 0 mm 1 mps 749 mmHg 82%
03:00 +14°C° 0 mm 1 mps 749 mmHg 84%
04:00 +13°C° 0 mm 1 mps 749 mmHg 85%
05:00 +15°C° 0 mm 1 mps 749 mmHg 80%
06:00 +18°C° 0 mm 1 mps 749 mmHg 75%
07:00 +19°C° 0 mm 1 mps 749 mmHg 69%
08:00 +21°C° 0 mm 1 mps 749 mmHg 63%
09:00 +23°C° 0 mm 1 mps 749 mmHg 57%
10:00 +25°C° 0 mm 1 mps 749 mmHg 50%
11:00 +26°C° 0 mm 1 mps 749 mmHg 47%
12:00 +26°C° 0 mm 1 mps 749 mmHg 45%
13:00 +27°C° 0 mm 1 mps 749 mmHg 42%
14:00 +26°C° 0 mm 2 mps 749 mmHg 44%
15:00 +26°C° 0 mm 2 mps 748 mmHg 46%
16:00 +26°C° 0 mm 2 mps 748 mmHg 48%
17:00 +24°C° 0 mm 2 mps 748 mmHg 56%
18:00 +21°C° 0 mm 2 mps 748 mmHg 64%
19:00 +19°C° 0 mm 2 mps 748 mmHg 73%
20:00 +18°C° 0 mm 2 mps 748 mmHg 76%
21:00 +18°C° 0 mm 2 mps 749 mmHg 80%
22:00 +17°C° 0 mm 2 mps 749 mmHg 83%
23:00 +16°C° 0 mm 2 mps 749 mmHg 85%
Show more